IBE6162 LPPT-LEPA

Flight info

Callsign IBE6162
Flight time 1h 33m
Altitude 38000
Route ORVED DCT UREDI DCT NVS/N0437F390 DCT NANDO DCT FENXE DCT MABUX DCT RETBA DCT MOPIR DCT LASPO/N0427F380 DCT ORVUS M871 GODOX
Aircraft A20N/M-SDE2E3FGHIRWXY/LB1

Departure

Time 2026-05-04 15:56
Airport Lisbon Humberto Delgado Airport (LPPT)

Arrival

Time 2026-05-04 17:29
Airport Palma de Mallorca Airport (LEPA)
Time Latitude Longitude Altitude Speed Heading
2026-05-04 15:30 38.77113 -9.13122 355 ft 0 kts 81°
2026-05-04 15:48 38.77112 -9.13127 347 ft 2 kts 81°
2026-05-04 15:48 38.77110 -9.13148 355 ft 2 kts 79°
2026-05-04 15:48 38.77101 -9.13188 349 ft 2 kts 53°
2026-05-04 15:49 38.77089 -9.13196 356 ft 1 kts 349°
2026-05-04 15:49 38.77088 -9.13195 356 ft 0 kts 349°
2026-05-04 15:50 38.77105 -9.13200 354 ft 10 kts 349°
2026-05-04 15:51 38.77188 -9.13222 349 ft 14 kts 348°
2026-05-04 15:51 38.77278 -9.13246 350 ft 11 kts 347°
2026-05-04 15:51 38.77326 -9.13314 349 ft 11 kts 269°
2026-05-04 15:51 38.77310 -9.13417 346 ft 13 kts 257°
2026-05-04 15:52 38.77290 -9.13533 351 ft 14 kts 259°
2026-05-04 15:52 38.77270 -9.13665 346 ft 16 kts 259°
2026-05-04 15:52 38.77245 -9.13808 352 ft 17 kts 252°
2026-05-04 15:52 38.77165 -9.13882 347 ft 15 kts 207°
2026-05-04 15:53 38.77062 -9.13937 349 ft 17 kts 202°
2026-05-04 15:53 38.76944 -9.13999 348 ft 20 kts 199°
2026-05-04 15:53 38.76811 -9.14070 351 ft 21 kts 203°
2026-05-04 15:53 38.76667 -9.14147 351 ft 23 kts 202°
2026-05-04 15:54 38.76598 -9.14231 347 ft 13 kts 265°
2026-05-04 15:54 38.76604 -9.14262 349 ft 0 kts 297°
2026-05-04 15:54 38.76610 -9.14283 347 ft 7 kts 290°
2026-05-04 15:54 38.76635 -9.14344 334 ft 15 kts 312°
2026-05-04 15:55 38.76763 -9.14327 339 ft 26 kts 23°
2026-05-04 15:55 38.77156 -9.14128 348 ft 93 kts 23°
2026-05-04 15:55 38.77638 -9.13860 348 ft 129 kts 21°
2026-05-04 15:55 38.78972 -9.13111 801 ft 172 kts 25°
2026-05-04 15:56 38.79710 -9.12664 1251 ft 180 kts 25°
2026-05-04 15:56 38.80826 -9.11922 2080 ft 182 kts 27°
2026-05-04 15:56 38.81946 -9.11079 2667 ft 195 kts 24°
2026-05-04 15:56 38.83214 -9.10212 3240 ft 218 kts 24°
2026-05-04 15:57 38.84624 -9.09248 3835 ft 240 kts 24°
2026-05-04 15:57 38.86152 -9.08148 4455 ft 260 kts 27°
2026-05-04 15:57 38.87723 -9.06966 5453 ft 264 kts 28°
2026-05-04 15:57 38.89218 -9.05560 6437 ft 271 kts 43°
2026-05-04 15:58 38.90350 -9.03568 7309 ft 281 kts 62°
2026-05-04 15:58 38.91186 -9.01272 8241 ft 287 kts 62°
2026-05-04 15:58 38.92050 -8.98914 9118 ft 293 kts 61°
2026-05-04 15:58 38.92934 -8.96542 10121 ft 296 kts 62°
2026-05-04 15:59 38.93851 -8.94089 10642 ft 316 kts 61°
2026-05-04 15:59 38.94837 -8.91458 10968 ft 339 kts 61°
2026-05-04 15:59 38.95883 -8.88678 11450 ft 354 kts 61°
2026-05-04 15:59 38.96959 -8.85797 12236 ft 360 kts 61°
2026-05-04 16:00 38.98048 -8.82867 13026 ft 366 kts 61°
2026-05-04 16:00 38.99163 -8.79865 13793 ft 373 kts 61°
2026-05-04 16:00 39.00288 -8.76832 14467 ft 379 kts 61°
2026-05-04 16:00 39.01432 -8.73744 15154 ft 385 kts 61°
2026-05-04 16:01 39.02593 -8.70611 15844 ft 390 kts 62°
2026-05-04 16:01 39.03751 -8.67484 16564 ft 394 kts 62°
2026-05-04 16:01 39.04937 -8.64275 17206 ft 400 kts 62°
2026-05-04 16:01 39.06140 -8.61014 17867 ft 406 kts 62°
2026-05-04 16:02 39.07359 -8.57711 18507 ft 411 kts 62°
2026-05-04 16:02 39.08593 -8.54366 19102 ft 415 kts 62°
2026-05-04 16:02 39.11092 -8.47572 20270 ft 424 kts 62°
2026-05-04 16:03 39.12363 -8.44112 20844 ft 429 kts 62°
2026-05-04 16:03 39.13639 -8.40631 21416 ft 433 kts 62°
2026-05-04 16:03 39.14936 -8.37089 21969 ft 438 kts 62°
2026-05-04 16:03 39.16238 -8.33530 22526 ft 442 kts 62°
2026-05-04 16:04 39.17538 -8.29971 23044 ft 447 kts 62°
2026-05-04 16:04 39.20210 -8.22642 24069 ft 455 kts 62°
2026-05-04 16:04 39.21557 -8.18941 24536 ft 458 kts 62°
2026-05-04 16:05 39.22918 -8.15202 25000 ft 462 kts 62°
2026-05-04 16:05 39.24287 -8.11431 25442 ft 465 kts 62°
2026-05-04 16:05 39.27058 -8.03794 26310 ft 472 kts 62°
2026-05-04 16:06 39.28353 -7.99872 26721 ft 478 kts 67°
2026-05-04 16:06 39.31465 -7.89064 27820 ft 487 kts 67°
2026-05-04 16:07 39.33043 -7.83607 28298 ft 492 kts 67°
2026-05-04 16:07 39.36653 -7.71073 29382 ft 500 kts 67°
2026-05-04 16:08 39.37868 -7.66839 29718 ft 503 kts 66°
2026-05-04 16:08 39.42443 -7.54556 30645 ft 509 kts 60°
2026-05-04 16:09 39.45611 -7.46332 31310 ft 512 kts 60°
2026-05-04 16:09 39.48752 -7.38134 32102 ft 511 kts 60°
2026-05-04 16:10 39.51900 -7.29902 32910 ft 509 kts 60°
2026-05-04 16:11 39.56598 -7.17571 33987 ft 509 kts 60°
2026-05-04 16:11 39.58161 -7.13459 34283 ft 508 kts 60°
2026-05-04 16:12 39.62842 -7.01123 35133 ft 508 kts 60°
2026-05-04 16:12 39.67485 -6.88833 35941 ft 506 kts 61°
2026-05-04 16:13 39.70582 -6.80610 36436 ft 506 kts 61°
2026-05-04 16:13 39.73668 -6.72391 36910 ft 505 kts 62°
2026-05-04 16:14 39.76724 -6.64229 37354 ft 504 kts 62°
2026-05-04 16:14 39.79789 -6.56013 37778 ft 504 kts 62°
2026-05-04 16:15 39.84367 -6.43712 37952 ft 503 kts 62°
2026-05-04 16:16 39.87003 -6.35260 37956 ft 505 kts 72°
2026-05-04 16:17 39.92360 -6.13544 37945 ft 504 kts 71°
2026-05-04 16:18 39.96629 -5.96111 37930 ft 505 kts 71°
2026-05-04 16:19 40.01915 -5.74335 37930 ft 505 kts 71°
2026-05-04 16:20 40.07185 -5.52438 37937 ft 506 kts 72°
2026-05-04 16:22 40.12414 -5.30482 37945 ft 506 kts 72°
2026-05-04 16:23 40.18613 -5.04196 37940 ft 504 kts 72°
2026-05-04 16:25 40.24741 -4.77904 37933 ft 505 kts 72°
2026-05-04 16:26 40.31862 -4.47004 37944 ft 506 kts 73°
2026-05-04 16:28 40.36017 -4.24736 37934 ft 503 kts 91°
2026-05-04 16:28 40.34474 -4.11297 37934 ft 498 kts 106°
2026-05-04 16:29 40.31383 -3.93571 37934 ft 498 kts 106°
2026-05-04 16:31 40.27479 -3.71528 37961 ft 497 kts 106°
2026-05-04 16:32 40.22724 -3.45036 37948 ft 498 kts 107°
2026-05-04 16:33 40.19542 -3.27516 37931 ft 497 kts 107°
2026-05-04 16:34 40.17124 -3.14306 37937 ft 497 kts 107°
2026-05-04 16:35 40.12246 -2.87923 37938 ft 498 kts 107°
2026-05-04 16:36 40.09792 -2.74789 37945 ft 498 kts 107°
2026-05-04 16:37 40.07311 -2.61598 37953 ft 498 kts 108°
2026-05-04 16:38 40.03987 -2.44064 37962 ft 498 kts 108°
2026-05-04 16:39 39.99769 -2.22146 37958 ft 495 kts 110°
2026-05-04 16:40 39.94071 -2.06074 37966 ft 486 kts 124°
2026-05-04 16:41 39.85899 -1.86821 37965 ft 484 kts 124°
2026-05-04 16:43 39.78290 -1.69019 37970 ft 484 kts 124°
2026-05-04 16:43 39.73357 -1.57535 37963 ft 485 kts 124°
2026-05-04 16:45 39.63500 -1.34709 37957 ft 482 kts 125°
2026-05-04 16:46 39.55274 -1.15786 37939 ft 482 kts 125°
2026-05-04 16:47 39.48675 -1.00695 37933 ft 484 kts 126°
2026-05-04 16:48 39.42011 -0.85523 37894 ft 482 kts 126°
2026-05-04 16:49 39.35364 -0.70471 37889 ft 488 kts 126°
2026-05-04 16:50 39.29292 -0.54726 37882 ft 502 kts 108°
2026-05-04 16:51 39.28702 -0.45659 37888 ft 514 kts 88°
2026-05-04 16:51 39.28966 -0.41057 37893 ft 514 kts 88°
2026-05-04 16:52 39.29951 -0.22665 37884 ft 513 kts 89°
2026-05-04 16:53 39.30656 -0.08868 37889 ft 513 kts 89°
2026-05-04 16:54 39.31568 0.09489 37896 ft 514 kts 89°
2026-05-04 16:55 39.32890 0.37154 37894 ft 514 kts 89°
2026-05-04 16:56 39.33937 0.60137 37782 ft 514 kts 90°
2026-05-04 16:57 39.34140 0.64733 37469 ft 513 kts 90°
2026-05-04 16:57 39.34544 0.73942 36626 ft 512 kts 90°
2026-05-04 16:58 39.35139 0.87734 35499 ft 511 kts 90°
2026-05-04 16:58 39.35333 0.92317 35135 ft 509 kts 91°
2026-05-04 16:59 39.35711 1.01463 34417 ft 511 kts 91°
2026-05-04 17:00 39.36446 1.19774 32869 ft 511 kts 91°
2026-05-04 17:00 39.36982 1.33517 31717 ft 512 kts 91°
2026-05-04 17:01 39.37472 1.42715 30971 ft 516 kts 84°
2026-05-04 17:01 39.38689 1.51867 30245 ft 515 kts 83°
2026-05-04 17:02 39.39888 1.60919 29425 ft 507 kts 83°
2026-05-04 17:02 39.41057 1.69871 28456 ft 502 kts 84°
2026-05-04 17:03 39.41636 1.74337 27588 ft 504 kts 83°
2026-05-04 17:03 39.42215 1.78818 26600 ft 508 kts 83°
2026-05-04 17:03 39.43352 1.87615 25938 ft 484 kts 83°
2026-05-04 17:04 39.44424 1.95943 25572 ft 455 kts 84°
2026-05-04 17:04 39.45565 2.03776 25207 ft 434 kts 76°
2026-05-04 17:05 39.47496 2.11133 24337 ft 429 kts 73°
2026-05-04 17:05 39.49411 2.18391 23474 ft 424 kts 73°
2026-05-04 17:06 39.51289 2.25557 22568 ft 416 kts 73°
2026-05-04 17:06 39.52210 2.29078 22199 ft 410 kts 73°
2026-05-04 17:07 39.54014 2.35984 21386 ft 402 kts 73°
2026-05-04 17:07 39.54604 2.38253 21119 ft 400 kts 73°
2026-05-04 17:07 39.55596 2.42840 20585 ft 392 kts 88°
2026-05-04 17:07 39.55450 2.46303 20197 ft 378 kts 109°
2026-05-04 17:08 39.54453 2.49351 19801 ft 358 kts 132°
2026-05-04 17:08 39.50781 2.52725 19280 ft 305 kts 178°
2026-05-04 17:08 39.48766 2.52699 19039 ft 278 kts 202°
2026-05-04 17:09 39.47122 2.51616 18805 ft 259 kts 224°
2026-05-04 17:09 39.45876 2.50037 18573 ft 250 kts 231°
2026-05-04 17:09 39.44781 2.48326 18337 ft 243 kts 236°
2026-05-04 17:10 39.43230 2.44587 17806 ft 231 kts 252°
2026-05-04 17:10 39.41661 2.38630 17015 ft 232 kts 250°
2026-05-04 17:11 39.41129 2.36658 16749 ft 232 kts 250°
2026-05-04 17:11 39.40602 2.34694 16651 ft 229 kts 250°
2026-05-04 17:11 39.39560 2.30786 16860 ft 232 kts 250°
2026-05-04 17:12 39.39034 2.28805 16945 ft 233 kts 250°
2026-05-04 17:12 39.38335 2.24722 16935 ft 236 kts 266°
2026-05-04 17:13 39.40198 2.18775 16936 ft 257 kts 309°
2026-05-04 17:14 39.45496 2.16674 16936 ft 294 kts
2026-05-04 17:14 39.47458 2.17560 16934 ft 305 kts 26°
2026-05-04 17:14 39.50250 2.21673 16661 ft 314 kts 71°
2026-05-04 17:15 39.50943 2.24324 16405 ft 309 kts 73°
2026-05-04 17:15 39.52295 2.29570 15903 ft 306 kts 72°
2026-05-04 17:16 39.53652 2.34751 15410 ft 302 kts 72°
2026-05-04 17:16 39.55894 2.42299 14578 ft 300 kts 56°
2026-05-04 17:17 39.57140 2.44495 14128 ft 304 kts 51°
2026-05-04 17:17 39.61135 2.51292 12087 ft 328 kts 54°
2026-05-04 17:18 39.62465 2.53749 11248 ft 335 kts 55°
2026-05-04 17:18 39.65044 2.58621 10419 ft 319 kts 55°
2026-05-04 17:19 39.67595 2.63452 10096 ft 323 kts 56°
2026-05-04 17:19 39.70138 2.68282 9720 ft 327 kts 56°
2026-05-04 17:20 39.72679 2.73111 9349 ft 322 kts 55°
2026-05-04 17:20 39.75208 2.77908 8989 ft 322 kts 56°
2026-05-04 17:20 39.76467 2.80303 8789 ft 318 kts 55°
2026-05-04 17:21 39.78931 2.84988 8512 ft 314 kts 56°
2026-05-04 17:21 39.80973 2.89897 8017 ft 303 kts 81°
2026-05-04 17:22 39.81365 2.92631 7862 ft 310 kts 82°
2026-05-04 17:22 39.81363 2.95364 7591 ft 297 kts 112°
2026-05-04 17:23 39.77281 3.01144 6801 ft 272 kts 131°
2026-05-04 17:23 39.75871 3.02881 6589 ft 293 kts 150°
2026-05-04 17:23 39.72791 3.04368 5630 ft 280 kts 192°
2026-05-04 17:24 39.70931 3.03696 4730 ft 288 kts 201°
2026-05-04 17:24 39.67005 2.99713 3827 ft 263 kts 225°
2026-05-04 17:25 39.65690 2.97123 3563 ft 248 kts 243°
2026-05-04 17:25 39.63025 2.93344 3861 ft 266 kts 244°
2026-05-04 17:26 39.61385 2.88771 2471 ft 259 kts 239°
2026-05-04 17:26 39.59867 2.84965 2098 ft 126 kts 231°
2026-05-04 17:27 39.58890 2.83194 1517 ft 117 kts 234°
2026-05-04 17:27 39.58087 2.81467 1162 ft 102 kts 234°
2026-05-04 17:28 39.57320 2.79881 862 ft 112 kts 236°
2026-05-04 17:29 39.55746 2.76573 177 ft 138 kts 235°
2026-05-04 17:29 39.54721 2.74432 33 ft 26 kts 243°
2026-05-04 17:30 39.54550 2.73910 33 ft 17 kts 265°
2026-05-04 17:31 39.54548 2.73861 34 ft 3 kts 267°
2026-05-04 17:31 39.54559 2.73700 35 ft 8 kts 294°
2026-05-04 17:32 39.54589 2.73645 35 ft 1 kts 319°
2026-05-04 17:33 39.54651 2.73616 35 ft 9 kts 347°
2026-05-04 17:33 39.54718 2.73579 35 ft 10 kts
2026-05-04 17:34 39.54752 2.73634 34 ft 0 kts 57°